Weather History for Sparta, WI

Change the Weather History Date:

Tuesday, August 21, 2012

  Actual Average Record
Temperature  
Mean Temperature 58 °F -  
Max Temperature 78 °F 79 °F 99 °F (1955)
Min Temperature 37 °F 54 °F 32 °F (2004)
Degree Days  
Heating Degree Days 8    
Growing Degree Days 8 (Base 50)    
Moisture  
Dew Point 44 °F    
Average Humidity 64    
Maximum Humidity 100    
Minimum Humidity 26    
Precipitation  
Precipitation 0.00 in - - ()
Sea Level Pressure  
Sea Level Pressure 30.08 in    
Wind  
Wind Speed 1 mph (WSW)    
Max Wind Speed 8 mph    
Max Gust Speed -    
Visibility 10 miles    
Events      
Averages and records for this station are not official NWS values.
T = Trace of Precipitation, MM = Missing Value Source: NWS Daily Summary

Daily Weather History Graph

Daily Weather History Graph

Search for Another Location

Airport:

Trip Planner

Search our weather history database for the weather conditions in past years. The results will help you decide how hot, cold, wet, or windy it might be!

Date:

Astronomy

Aug. 21, 2012 Rise Set
Actual Time 6:14 AM CDT 7:56 PM CDT
Civil Twilight 5:43 AM CDT 8:27 PM CDT
Nautical Twilight 5:06 AM CDT 9:04 PM CDT
Astronomical Twilight 4:26 AM CDT 9:44 PM CDT
Moon 10:57 AM CDT (8/21) 9:43 PM CDT (8/21)
Length of Visible Light 14h 43m
Length of Day
13h 42m
Waxing Crescent, 19% of the Moon is Illuminated
Aug 21
Waxing Crescent
Aug 24
First Quarter
Aug 31
Full
Sep 8
Last Quarter
Sep 15
New

Hourly Weather History & Observations

Time (CDT) Temp. Dew Point Humidity Pressure Visibility Wind Dir Wind Speed Gust Speed Precip Events Conditions
12:15 AM 44.6 °F 44.6 °F 100% 30.04 in 10.0 mi Calm Calm - N/A   Clear
12:35 AM 44.6 °F 44.6 °F 100% 30.05 in 10.0 mi Calm Calm - N/A   Clear
1:15 AM 44.6 °F 42.8 °F 93% 30.05 in 10.0 mi Calm Calm - N/A   Clear
1:35 AM 44.6 °F 42.8 °F 93% 30.06 in 10.0 mi Calm Calm - N/A   Clear
1:55 AM 44.6 °F 42.8 °F 93% 30.06 in 10.0 mi Calm Calm - N/A   Clear
2:15 AM 42.8 °F 42.8 °F 100% 30.06 in 10.0 mi Calm Calm - N/A   Clear
2:35 AM 42.8 °F 42.8 °F 100% 30.06 in 10.0 mi Calm Calm - N/A   Clear
2:55 AM 42.8 °F 41.0 °F 93% 30.07 in 10.0 mi Calm Calm - N/A   Clear
3:15 AM 41.0 °F 41.0 °F 100% 30.07 in 10.0 mi Calm Calm - N/A   Clear
3:35 AM 41.0 °F 41.0 °F 100% 30.07 in 10.0 mi Calm Calm - N/A   Clear
3:55 AM 41.0 °F 41.0 °F 100% 30.07 in 10.0 mi Calm Calm - N/A   Clear
4:15 AM 41.0 °F 41.0 °F 100% 30.07 in 10.0 mi Calm Calm - N/A   Clear
4:35 AM 41.0 °F 39.2 °F 93% 30.07 in 10.0 mi Calm Calm - N/A   Clear
4:55 AM 41.0 °F 39.2 °F 93% 30.07 in 10.0 mi Calm Calm - N/A   Clear
5:15 AM 41.0 °F 39.2 °F 93% 30.07 in 10.0 mi Calm Calm - N/A   Clear
5:35 AM 39.2 °F 37.4 °F 93% 30.07 in 10.0 mi Calm Calm - N/A   Clear
5:55 AM 41.0 °F 37.4 °F 87% 30.08 in 10.0 mi Calm Calm - N/A   Clear
6:15 AM 37.4 °F 37.4 °F 100% 30.09 in 10.0 mi Calm Calm - N/A   Clear
6:35 AM 37.4 °F 37.4 °F 100% 30.09 in 10.0 mi Calm Calm - N/A   Clear
6:55 AM 41.0 °F 39.2 °F 93% 30.09 in 10.0 mi Calm Calm - N/A   Clear
7:15 AM 42.8 °F 41.0 °F 93% 30.10 in 10.0 mi Calm Calm - N/A   Clear
7:35 AM 44.6 °F 42.8 °F 93% 30.10 in 10.0 mi Calm Calm - N/A   Clear
7:55 AM 46.4 °F 44.6 °F 93% 30.10 in 10.0 mi Calm Calm - N/A   Clear
8:15 AM 50.0 °F 46.4 °F 87% 30.10 in 10.0 mi Calm Calm - N/A   Clear
8:35 AM 53.6 °F 46.4 °F 77% 30.10 in 10.0 mi Calm Calm - N/A   Clear
8:55 AM 55.4 °F 46.4 °F 72% 30.10 in 10.0 mi Calm Calm - N/A   Clear
9:15 AM 59.0 °F 48.2 °F 67% 30.11 in 10.0 mi Calm Calm - N/A   Clear
9:35 AM 60.8 °F 50.0 °F 68% 30.11 in 10.0 mi West 3.5 mph - N/A   Clear
9:55 AM 64.4 °F 50.0 °F 59% 30.10 in 10.0 mi Calm Calm - N/A   Clear
10:15 AM 68.0 °F 50.0 °F 52% 30.11 in 10.0 mi Calm Calm - N/A   Clear
10:35 AM 69.8 °F 46.4 °F 43% 30.11 in 10.0 mi Calm Calm - N/A   Clear
10:55 AM 71.6 °F 46.4 °F 41% 30.11 in 10.0 mi Calm Calm - N/A   Clear
11:15 AM 71.6 °F 42.8 °F 35% 30.11 in 10.0 mi West 4.6 mph - N/A   Clear
11:35 AM 73.4 °F 44.6 °F 36% 30.11 in 10.0 mi West 3.5 mph - N/A   Clear
11:55 AM 73.4 °F 44.6 °F 36% 30.10 in 10.0 mi NNW 4.6 mph - N/A   Clear
12:15 PM 73.4 °F 42.8 °F 33% 30.10 in 10.0 mi West 5.8 mph - N/A   Clear
12:35 PM 75.2 °F 42.8 °F 31% 30.10 in 10.0 mi WNW 6.9 mph - N/A   Clear
12:55 PM 75.2 °F 42.8 °F 31% 30.09 in 10.0 mi NNW 5.8 mph - N/A   Clear
1:15 PM 75.2 °F 41.0 °F 29% 30.09 in 10.0 mi SSW 3.5 mph - N/A   Clear
1:35 PM 77.0 °F 41.0 °F 28% 30.09 in 10.0 mi Calm Calm - N/A   Clear
1:55 PM 77.0 °F 39.2 °F 26% 30.09 in 10.0 mi SW 3.5 mph - N/A   Clear
2:15 PM 77.0 °F 39.2 °F 26% 30.08 in 10.0 mi South 4.6 mph - N/A   Clear
2:35 PM 77.0 °F 41.0 °F 28% 30.08 in 10.0 mi WNW 3.5 mph - N/A   Clear
2:55 PM 77.0 °F 41.0 °F 28% 30.07 in 10.0 mi WSW 5.8 mph - N/A   Clear
3:15 PM 77.0 °F 41.0 °F 28% 30.07 in 10.0 mi NNW 5.8 mph - N/A   Clear
3:35 PM 78.8 °F 42.8 °F 28% 30.06 in 10.0 mi WSW 4.6 mph - N/A   Clear
3:55 PM 78.8 °F 42.8 °F 28% 30.06 in 10.0 mi WSW 5.8 mph - N/A   Clear
4:15 PM 78.8 °F 42.8 °F 28% 30.06 in 10.0 mi WSW 5.8 mph - N/A   Clear
4:35 PM 78.8 °F 42.8 °F 28% 30.06 in 10.0 mi SSE 5.8 mph - N/A   Clear
4:55 PM 77.0 °F 42.8 °F 29% 30.05 in 10.0 mi SSW 4.6 mph - N/A   Clear
5:15 PM 77.0 °F 42.8 °F 29% 30.06 in 10.0 mi West 6.9 mph - N/A   Clear
5:35 PM 77.0 °F 42.8 °F 29% 30.06 in 10.0 mi SSW 5.8 mph - N/A   Clear
5:55 PM 77.0 °F 41.0 °F 28% 30.06 in 10.0 mi West 8.1 mph - N/A   Clear
6:15 PM 77.0 °F 41.0 °F 28% 30.06 in 10.0 mi West 6.9 mph - N/A   Clear
6:35 PM 77.0 °F 41.0 °F 28% 30.06 in 10.0 mi West 5.8 mph - N/A   Clear
6:55 PM 75.2 °F 41.0 °F 29% 30.06 in 10.0 mi WSW 3.5 mph - N/A   Clear
7:15 PM 73.4 °F 42.8 °F 33% 30.06 in 10.0 mi Calm Calm - N/A   Clear
7:35 PM 71.6 °F 44.6 °F 38% 30.05 in 10.0 mi Calm Calm - N/A   Clear
7:55 PM 64.4 °F 48.2 °F 56% 30.06 in 10.0 mi Calm Calm - N/A   Clear
8:15 PM 60.8 °F 48.2 °F 63% 30.06 in 10.0 mi Calm Calm - N/A   Clear
8:35 PM 59.0 °F 48.2 °F 67% 30.06 in 10.0 mi Calm Calm - N/A   Clear
8:55 PM 57.2 °F 50.0 °F 77% 30.07 in 10.0 mi Calm Calm - N/A   Clear
9:15 PM 55.4 °F 48.2 °F 77% 30.07 in 10.0 mi Calm Calm - N/A   Clear
9:35 PM 55.4 °F 48.2 °F 77% 30.07 in 10.0 mi Calm Calm - N/A   Clear
9:55 PM 53.6 °F 48.2 °F 82% 30.06 in 10.0 mi Calm Calm - N/A   Clear
10:15 PM 51.8 °F 48.2 °F 88% 30.06 in 10.0 mi Calm Calm - N/A   Clear
10:35 PM 51.8 °F 50.0 °F 94% 30.06 in 10.0 mi Calm Calm - N/A   Clear
10:55 PM 50.0 °F 48.2 °F 94% 30.06 in 10.0 mi Calm Calm - N/A   Clear
11:15 PM 50.0 °F 46.4 °F 87% 30.05 in 10.0 mi Calm Calm - N/A   Clear
11:55 PM 48.2 °F 46.4 °F 93% 30.05 in 10.0 mi Calm Calm - N/A   Clear